GEFSSGP_con_cape1000_264.txt.gz
Probability
32 29 45 45 26 0 0 0 0 0 0 0 0 0 0 0 3 3 6 6 6 16 26 32 65 68 65 68 71 71 68 68 71 77 71 68 58 55 61 58 55 48 45 45 45 55 45 48 48
39 45 42 39 3 0 0 0 0 0 0 0 0 0 0 3 3 3 3 10 10 10 29 29 48 65 61 68 65 71 71 71 71 71 77 71 65 58 55 42 52 55 52 55 48 48 55 48 48
48 48 39 10 0 0 0 0 0 0 0 0 0 0 0 3 3 6 13 16 13 16 29 42 48 58 58 61 68 71 74 71 74 77 74 74 61 61 55 52 45 45 45 42 45 42 42 48 48
58 32 10 3 0 0 0 0 0 0 0 0 0 0 10 13 10 10 13 13 10 19 16 39 52 68 71 68 68 68 68 71 68 68 68 58 48 55 58 55 52 39 39 35 39 39 35 39 42
35 13 0 0 0 0 0 0 0 0 0 0 0 0 6 13 10 10 13 10 10 13 19 35 58 58 65 68 61 68 68 71 68 58 65 55 48 48 42 42 42 45 35 42 35 35 45 48 42
10 0 0 0 0 0 0 0 0 0 0 0 0 0 10 13 16 10 16 16 16 19 26 32 58 58 61 61 68 68 74 65 65 55 61 58 55 42 29 32 29 32 32 32 39 39 42 48 42
6 0 0 0 0 0 0 0 0 0 0 0 0 0 3 10 10 16 23 19 23 19 26 19 19 52 61 61 65 71 74 74 68 68 58 61 52 45 32 35 32 35 45 39 35 39 32 32 32
0 0 0 0 0 0 0 0 0 0 3 0 0 0 0 10 6 10 13 16 13 16 32 29 39 39 35 39 61 71 74 74 71 65 58 48 48 45 23 32 52 45 45 32 29 35 32 29 26
0 0 0 0 0 0 0 0 0 0 0 0 0 0 3 6 3 6 10 6 10 19 29 26 26 29 29 29 42 52 68 58 71 71 55 55 52 35 29 16 45 26 26 29 42 35 35 32 32
0 0 0 0 0 0 0 0 0 0 0 0 3 6 3 3 6 6 6 6 13 13 23 23 23 23 26 23 48 55 35 61 68 71 65 71 71 52 26 26 42 39 29 32 35 39 29 23 26
0 0 0 0 0 0 0 0 0 0 0 0 0 3 6 6 6 3 6 6 10 16 23 35 32 42 39 42 39 52 48 58 52 65 65 74 48 48 39 45 42 52 29 32 29 23 23 13 13
0 0 0 0 0 0 0 0 0 0 0 0 0 3 10 10 6 10 6 6 13 23 23 26 32 55 52 55 45 55 42 45 48 68 58 48 52 52 45 55 45 45 58 58 32 35 26 19 10
0 0 0 0 0 0 0 0 0 0 0 0 3 3 10 6 6 6 10 13 10 23 19 35 52 52 58 65 45 32 48 32 55 65 52 55 45 45 48 61 55 42 35 35 45 32 32 26 16
3 3 0 0 0 0 0 0 0 0 0 0 3 3 6 10 6 13 13 10 10 19 23 32 42 55 65 61 65 58 42 68 52 52 58 58 42 48 45 48 48 35 35 39 42 39 35 23 19
3 3 3 0 0 0 0 0 0 0 0 3 3 3 3 10 10 13 16 19 19 23 32 52 48 52 61 61 55 45 45 48 52 61 68 58 48 61 55 48 42 35 39 52 45 45 39 26 19
0 0 0 0 0 0 0 0 0 0 0 3 3 3 3 10 13 13 16 23 23 26 48 48 29 48 68 74 77 55 68 65 58 65 65 65 61 61 68 52 48 52 35 42 45 39 35 39 32
0 0 0 0 0 0 0 0 0 0 0 3 3 3 3 10 10 16 16 16 19 39 55 58 55 58 65 74 81 71 77 71 61 61 71 68 65 52 52 58 58 48 39 42 29 45 42 42 35
0 0 0 0 0 0 0 0 0 0 0 0 6 3 6 16 13 16 19 16 26 39 48 65 71 74 74 74 74 77 71 74 65 68 68 61 61 52 45 55 65 39 35 52 52 55 55 45 35
0 0 0 0 0 0 0 0 0 0 0 0 10 6 6 10 16 19 32 29 29 39 61 68 74 77 74 74 77 74 65 65 58 61 61 61 52 55 52 48 61 48 45 58 42 52 45 42 35
0 0 0 0 0 0 0 0 0 3 3 3 13 13 13 13 19 29 32 35 39 61 71 71 77 74 77 84 81 74 74 58 55 61 71 61 58 55 52 55 58 58 68 65 58 65 45 42 39
0 0 0 0 0 0 0 0 0 0 0 3 10 10 10 16 19 26 39 42 45 55 71 58 77 77 77 77 74 77 71 71 55 55 65 61 55 55 58 52 58 61 58 58 65 61 58 52 45
0 0 0 0 0 0 0 0 3 0 3 6 10 16 13 16 23 32 35 45 48 55 61 74 77 77 74 74 74 77 71 68 65 68 55 61 58 58 55 58 58 58 55 61 48 52 55 55 45
0 0 0 0 0 0 0 0 0 0 6 13 19 23 16 19 29 26 32 45 42 45 52 71 77 77 77 77 74 74 68 68 58 65 71 68 65 61 48 55 65 61 55 58 55 52 61 45 48
0 0 0 0 0 0 0 0 0 3 0 13 13 23 26 19 26 26 35 35 39 42 55 61 77 77 81 81 74 77 71 74 71 68 58 48 45 45 39 45 61 52 52 52 58 65 58 58 61
0 0 0 0 0 0 0 0 0 3 3 3 10 19 19 23 29 29 32 35 39 45 52 65 77 81 77 81 77 74 74 71 71 61 52 48 42 39 48 45 58 48 52 52 55 58 58 48 55
0 0 0 0 0 0 0 0 0 3 10 10 19 23 19 29 39 32 32 39 42 42 65 74 77 81 81 74 71 68 68 58 58 61 48 48 45 42 48 52 52 48 45 45 55 52 55 58 58
0 0 0 0 0 0 0 0 0 10 13 19 23 16 26 26 32 35 45 42 45 48 68 74 77 81 77 68 68 68 68 68 61 65 55 45 48 39 45 45 45 52 48 48 55 52 52 52 48
0 0 0 0 0 0 0 0 3 13 16 23 29 23 19 32 39 35 45 52 52 58 61 74 74 77 77 71 71 61 71 68 65 65 58 48 45 45 45 45 45 48 48 48 55 55 55 55 52
0 0 0 0 0 0 0 0 3 13 19 23 23 29 26 35 42 45 52 52 58 58 55 71 68 65 61 65 68 68 65 65 68 61 52 48 48 45 45 48 48 48 52 48 48 48 52 52 48
0 0 0 0 0 0 0 3 6 13 19 19 26 26 19 39 55 55 52 52 55 55 55 61 65 61 61 61 65 65 65 65 61 58 48 48 48 45 48 48 45 48 42 45 48 45 42 52 45

GEFSSGP_con_cape1000_270.txt.gz
Probability
32 29 52 68 55 16 3 0 0 0 0 0 0 0 3 3 3 3 6 13 19 26 29 45 65 68 71 68 65 65 65 68 61 55 52 61 65 65 58 58 55 58 48 39 39 42 45 45 42
29 61 68 61 29 0 0 0 0 0 0 0 0 3 3 3 3 6 6 16 16 23 29 39 65 65 65 65 58 61 61 61 58 58 58 55 48 55 55 48 45 48 42 35 32 32 32 39 35
45 61 61 48 10 0 0 0 0 0 0 0 0 0 3 3 6 6 6 16 19 23 32 48 65 65 68 68 68 65 61 61 55 55 65 58 52 55 58 52 42 42 32 42 45 26 29 29 32
71 68 52 6 0 0 0 0 0 0 0 0 0 0 3 6 6 6 6 10 10 13 16 45 61 61 68 65 65 68 71 71 61 58 61 52 42 35 39 35 39 35 42 32 32 29 42 39 39
81 45 10 3 0 0 0 0 0 0 3 3 3 3 6 6 6 6 6 10 10 13 13 29 65 58 61 61 65 65 74 68 61 58 42 45 35 39 42 35 35 26 29 39 32 35 45 39 42
39 19 3 0 0 0 0 0 0 0 0 0 6 10 6 6 16 16 6 6 10 13 13 32 58 55 61 65 68 65 68 68 55 48 42 45 29 32 35 29 45 23 23 29 39 48 48 48 42
19 0 0 0 0 0 0 0 0 0 0 0 0 6 6 6 13 13 13 10 10 16 16 32 35 48 61 61 68 71 71 65 52 48 42 42 32 35 39 35 42 35 35 39 32 42 39 32 39
3 0 0 0 0 0 0 0 0 0 0 0 0 3 10 10 10 6 10 16 16 13 19 26 32 48 45 45 65 71 55 58 55 52 39 39 48 45 45 48 42 32 42 45 29 29 26 32 39
0 0 0 0 0 0 0 0 0 0 0 0 3 6 10 6 6 6 10 16 19 23 29 26 39 42 39 26 42 65 61 52 55 58 52 45 42 26 26 19 39 29 29 35 39 32 32 23 35
0 0 0 0 0 0 0 0 0 0 0 0 3 3 6 6 10 16 13 16 23 23 19 39 45 39 26 26 71 71 58 68 71 68 65 61 65 45 13 35 45 42 32 26 32 39 26 19 19
0 0 0 0 0 0 0 0 0 0 0 0 3 3 0 3 3 10 10 19 26 29 32 26 45 55 48 55 55 74 74 74 71 71 68 68 58 45 42 42 42 45 35 32 32 32 26 23 29
0 0 0 0 0 0 0 0 0 0 0 0 3 3 3 3 6 6 16 23 32 32 29 29 48 71 77 65 58 61 61 71 61 68 58 61 74 65 55 65 55 45 45 48 35 39 35 26 29
0 0 0 0 0 0 0 0 0 0 0 0 3 3 3 6 6 10 19 19 19 45 39 52 74 77 84 84 77 55 71 61 61 65 61 65 65 65 55 58 61 55 55 48 48 42 35 39 32
0 0 0 0 0 0 0 0 0 0 0 0 3 6 6 6 3 10 16 16 16 23 35 52 74 84 87 84 84 81 71 77 71 71 65 61 61 68 68 65 58 58 58 65 52 45 39 48 42
0 0 0 0 0 0 0 0 0 0 0 3 6 6 6 19 13 13 23 26 19 32 61 61 65 74 84 84 77 71 68 68 74 74 65 71 68 77 68 68 68 68 61 55 58 45 52 52 42
0 0 0 0 0 0 0 0 0 0 0 0 0 10 16 16 16 16 16 26 58 55 71 65 29 71 87 90 87 81 74 81 81 74 77 68 71 71 74 68 68 68 61 58 61 68 58 52 52
0 0 0 0 0 0 0 0 0 0 0 0 0 6 13 16 19 23 19 16 48 71 74 74 84 87 90 90 90 87 84 84 77 81 81 81 74 65 68 68 71 65 68 58 52 58 65 58 55
0 0 0 0 0 0 0 0 0 0 0 0 3 6 13 16 19 19 26 29 48 77 81 84 84 90 90 87 90 84 87 81 81 84 84 81 74 68 74 74 68 65 68 68 71 68 68 68 65
0 0 0 0 0 0 0 0 0 0 3 3 3 6 10 13 13 19 26 29 42 74 87 87 87 87 90 90 90 87 84 84 81 81 81 77 74 71 81 68 71 74 71 71 61 68 58 61 65
0 0 0 0 0 0 0 0 0 0 3 3 10 10 16 19 26 29 32 29 52 81 87 87 87 87 90 90 87 87 84 84 84 84 77 77 77 74 58 77 71 74 77 74 77 74 74 68 61
0 0 0 0 0 0 0 0 0 0 0 3 6 10 19 26 29 35 35 42 42 68 84 77 87 87 90 90 84 81 84 81 81 77 81 77 71 74 74 74 74 74 74 77 74 71 77 68 68
0 0 0 0 0 0 0 0 0 0 6 3 10 13 10 19 32 32 48 58 55 68 77 87 87 87 84 87 87 77 81 81 81 81 81 74 71 74 74 71 74 74 71 74 71 65 65 68 58
0 0 0 0 0 0 0 0 0 0 6 10 6 13 10 19 29 29 35 55 58 55 68 84 87 84 81 84 84 84 84 84 84 81 77 74 77 65 74 68 65 68 68 68 68 71 74 71 58
0 0 0 0 0 0 0 0 3 6 3 3 3 6 13 19 26 32 32 58 52 55 58 71 84 81 81 81 81 81 81 81 81 81 77 74 68 68 65 58 68 68 65 68 65 68 68 71 65
0 0 0 0 0 0 0 0 0 0 3 3 3 6 13 19 32 42 42 55 55 55 58 74 81 81 81 81 81 81 81 81 81 77 68 65 58 58 61 55 65 71 65 61 61 65 68 68 65
0 0 0 0 0 0 0 3 3 0 0 0 10 10 10 23 32 39 39 58 52 52 71 77 81 81 81 81 81 81 81 81 77 74 68 61 58 58 58 61 65 65 65 58 61 58 61 68 68
0 0 0 0 0 0 0 3 3 3 3 6 3 16 10 16 35 39 35 39 55 55 68 77 81 81 81 81 81 81 74 71 71 71 65 58 58 55 48 52 52 58 61 61 65 65 68 65 68
0 0 0 0 3 0 0 3 6 16 10 13 16 19 19 16 35 35 39 48 52 61 68 71 81 81 81 81 81 71 71 71 71 65 61 58 61 58 55 52 55 65 65 68 68 65 68 68 71
0 0 0 0 3 0 0 3 10 13 16 16 16 23 23 26 32 42 42 48 48 58 61 77 81 81 81 77 74 71 68 68 65 65 61 65 61 55 58 55 55 58 58 58 61 58 61 61 65
0 0 0 0 3 0 0 3 3 10 13 16 23 23 26 29 35 48 55 58 58 65 65 71 77 77 77 74 68 65 65 65 65 65 61 58 52 58 58 55 52 52 55 58 58 58 58 58 65

GEFSSGP_con_cape1000_276.txt.gz
Probability
45 23 19 26 13 0 0 0 0 0 0 3 3 3 3 3 0 0 3 10 13 19 39 61 74 71 71 68 58 71 65 71 68 71 68 71 77 61 61 55 68 71 68 61 48 48 52 52 55
26 19 23 23 3 0 0 0 0 0 0 3 3 3 3 6 6 6 6 10 16 19 19 48 71 65 68 65 61 61 65 55 61 65 68 71 74 68 61 61 61 58 55 55 42 45 45 52 48
13 29 29 16 3 0 0 0 0 0 0 3 3 3 3 6 6 6 6 10 13 19 23 48 68 71 65 55 65 68 61 58 61 58 61 58 58 65 45 52 58 58 55 39 48 39 42 45 42
13 26 16 6 3 0 0 0 0 0 0 0 3 3 3 3 3 3 6 6 16 26 35 55 68 68 71 68 68 77 71 65 65 58 52 55 55 55 55 52 39 52 39 32 39 42 39 42 42
10 16 10 3 3 0 0 0 0 0 0 0 0 0 3 3 6 10 6 13 19 26 35 48 68 71 68 68 71 68 71 58 52 52 58 58 55 48 48 42 32 39 35 35 39 32 35 39 42
13 6 3 0 0 0 0 0 0 0 0 0 0 0 0 3 10 13 10 6 16 23 29 48 68 71 71 65 71 71 81 68 55 48 52 55 45 39 35 39 35 39 39 42 35 39 39 48 45
13 3 0 0 0 0 0 0 0 0 0 0 0 0 0 0 0 6 6 6 6 10 19 23 42 55 68 65 71 81 65 65 58 45 45 52 55 52 42 42 35 35 42 42 35 26 35 32 45
6 0 0 0 0 0 0 0 0 0 0 0 0 0 0 0 0 0 3 3 3 6 10 13 16 23 26 35 61 68 68 61 52 48 52 55 55 48 48 39 39 42 39 35 29 23 35 42 42
10 0 0 0 0 0 0 0 0 0 0 0 0 0 0 0 0 0 0 3 0 6 10 10 6 3 6 16 32 45 45 52 48 52 55 42 10 10 16 23 39 45 42 42 39 35 39 45 45
0 0 0 0 0 0 0 0 0 0 0 3 3 3 3 0 0 6 0 0 3 3 6 10 6 3 3 16 16 16 13 13 6 6 6 6 6 3 10 29 52 42 39 39 52 39 32 23 13
0 0 0 0 0 0 0 0 0 0 0 0 3 6 6 3 6 3 3 3 3 3 6 3 6 0 0 0 3 10 0 0 0 6 6 3 3 0 6 3 16 19 23 16 16 19 13 10 3
0 0 0 0 0 0 0 0 0 0 0 0 0 6 6 3 3 6 6 6 6 10 10 10 6 3 3 0 3 3 0 3 3 6 6 3 6 3 0 0 0 3 3 6 6 6 6 6 3
0 0 0 0 0 0 0 0 0 0 0 0 3 10 6 3 3 6 10 10 10 10 10 13 10 10 0 3 6 0 0 3 0 3 10 6 3 3 0 0 0 3 3 6 3 6 6 6 3
0 0 0 0 0 0 0 0 0 0 0 3 3 6 10 6 0 0 0 6 6 6 13 13 13 10 6 3 6 3 3 3 3 13 10 6 3 3 0 0 3 3 0 6 6 10 10 3 3
0 0 0 0 0 0 0 0 0 0 6 3 3 3 3 3 0 0 0 3 3 3 13 13 10 10 6 6 10 13 10 10 10 16 23 13 6 3 0 0 3 6 3 6 10 10 6 6 3
0 0 0 0 0 0 0 0 0 0 6 3 3 3 3 3 3 0 0 0 3 6 13 10 16 10 6 6 6 19 19 13 16 16 16 19 13 6 3 3 10 6 6 10 6 6 6 6 0
0 0 0 0 0 0 0 0 0 3 6 6 3 6 6 3 3 3 6 3 0 3 10 13 23 26 16 29 19 16 19 23 19 19 19 19 19 10 10 6 10 13 10 10 6 6 6 6 3
0 0 0 0 0 0 0 0 0 0 3 3 3 6 6 3 3 3 6 10 16 16 16 23 29 26 29 29 23 26 16 19 19 23 23 23 23 16 13 13 10 13 6 6 3 3 6 6 3
0 0 0 0 0 0 0 0 0 0 3 3 3 10 6 6 3 3 16 13 26 23 19 26 35 32 29 32 35 23 19 19 19 19 29 16 19 16 13 16 13 13 6 6 6 10 6 6 3
0 0 0 0 0 0 0 0 0 0 3 3 3 13 10 10 10 10 10 16 26 19 29 32 35 32 35 39 42 19 23 16 16 16 13 16 16 19 19 13 13 10 10 10 3 6 6 6 3
0 0 0 0 0 0 0 0 3 3 3 3 3 10 10 13 13 13 16 13 16 29 35 39 32 45 42 45 42 32 26 32 32 19 16 19 19 19 16 19 19 19 13 16 10 13 10 6 3
0 0 0 0 0 0 0 0 0 0 0 3 3 6 16 16 13 16 16 16 16 29 35 32 42 42 48 42 42 35 29 26 23 16 13 16 23 19 19 16 23 23 19 23 23 19 16 10 10
0 0 0 0 0 0 0 0 0 0 0 3 3 10 19 19 19 16 26 26 23 35 35 39 39 35 45 48 39 35 35 29 23 23 19 16 16 19 23 26 19 13 13 16 19 26 23 19 13
0 0 0 0 0 0 0 0 0 0 0 0 6 3 13 23 29 19 29 26 32 35 42 48 42 45 48 52 45 35 35 29 26 23 26 26 19 19 23 23 19 19 23 23 26 29 26 23 19
0 0 0 0 0 0 0 0 0 0 0 0 6 6 10 19 26 23 26 32 29 39 45 52 58 52 55 48 52 45 35 32 26 29 23 23 23 26 26 23 23 23 26 26 26 29 32 23 26
0 0 0 0 0 0 0 0 3 3 0 3 6 10 13 19 19 23 23 26 29 29 35 52 58 61 52 52 45 45 39 35 32 19 23 26 23 23 23 26 26 29 29 32 26 29 32 29 29
0 0 0 0 0 0 0 0 0 3 3 6 6 10 16 16 26 29 29 23 29 29 32 45 52 58 55 52 48 45 45 42 39 35 35 29 26 23 19 16 23 29 32 29 29 29 32 32 29
0 0 0 0 0 0 0 0 3 3 3 6 10 13 16 19 26 32 29 23 19 23 29 42 52 58 58 55 52 52 48 45 42 39 39 35 29 29 23 26 23 26 29 29 29 29 29 29 26
0 0 0 0 0 0 0 3 3 6 6 6 6 10 13 16 26 39 32 29 32 35 29 42 52 48 48 48 52 48 45 48 45 45 45 42 32 29 29 29 32 32 32 32 32 29 29 32 32
0 0 0 0 0 0 0 0 0 0 6 3 10 13 19 16 26 29 35 35 39 42 39 45 45 55 55 45 42 42 45 42 45 48 42 39 39 29 32 29 35 35 35 35 32 32 35 35 35

GEFSSGP_con_cape1000_282.txt.gz
Probability
39 29 13 6 0 0 0 0 0 0 0 0 0 0 3 0 0 0 0 0 3 10 16 32 52 55 52 52 55 65 68 61 58 58 61 68 65 58 52 61 55 55 48 48 55 55 55 61 61
29 23 13 0 0 0 0 0 0 0 0 3 3 3 3 3 3 3 3 6 10 13 6 19 48 48 45 55 61 61 52 58 55 61 58 61 65 58 45 48 58 48 45 39 42 48 55 48 55
23 16 6 0 0 0 0 0 0 0 3 3 3 3 3 0 6 6 6 10 10 13 10 16 42 48 39 52 55 55 55 55 55 58 61 58 61 65 52 48 52 45 35 39 42 52 61 58 58
13 10 0 0 0 0 0 0 0 0 3 3 3 0 0 0 3 6 6 10 13 10 10 16 42 42 42 52 52 52 58 52 55 48 52 61 61 52 42 48 52 52 39 45 52 58 61 61 58
0 3 3 0 0 0 0 0 0 0 0 0 0 0 0 0 3 6 6 6 6 10 16 23 39 42 45 45 52 48 52 45 45 52 55 65 61 55 55 58 61 45 42 45 52 48 55 58 61
0 6 0 0 0 0 0 0 0 0 0 0 0 0 0 0 3 6 6 3 6 6 16 23 48 52 48 45 48 48 48 45 45 48 48 55 58 58 48 58 55 48 42 45 52 48 45 48 52
6 0 0 0 0 0 0 0 0 0 0 0 0 0 3 3 3 3 3 3 6 6 10 10 23 23 39 45 48 52 55 45 52 55 61 52 48 48 61 55 48 42 39 35 42 45 48 55 52
6 0 0 0 0 0 0 0 0 0 0 0 0 0 0 3 3 3 3 3 6 6 6 6 10 13 16 19 35 45 55 55 52 55 55 48 39 29 39 45 45 35 35 39 42 42 42 42 45
3 3 0 0 0 0 0 0 0 0 0 0 0 0 0 3 3 3 0 0 3 3 6 3 6 6 10 10 16 23 32 39 45 39 55 35 6 6 16 26 39 29 35 39 45 45 39 39 42
3 3 0 0 0 0 0 0 0 0 0 0 0 0 3 3 6 0 0 0 0 3 0 6 6 0 0 6 6 10 10 10 10 6 6 0 0 0 10 29 45 32 32 29 39 32 29 13 13
0 0 0 0 0 0 0 0 0 0 0 0 0 0 3 3 3 0 0 0 0 0 0 0 3 0 0 0 0 0 0 0 0 0 3 0 0 0 0 0 0 0 6 6 16 13 10 3 3
3 0 0 0 0 0 0 0 0 0 0 3 3 0 3 3 0 0 0 0 0 0 0 0 3 0 0 0 0 0 0 0 0 0 3 3 0 0 0 0 0 0 0 3 6 6 3 3 3
0 0 0 0 0 0 0 0 0 0 3 3 3 0 0 3 0 0 0 0 0 0 3 3 6 0 0 0 0 0 0 0 0 3 3 3 0 0 0 0 0 0 0 3 3 6 3 3 3
0 0 0 0 0 0 0 0 0 0 3 3 0 0 0 3 3 3 0 0 0 0 3 6 6 0 0 0 0 0 0 0 3 3 0 0 0 0 0 0 0 0 0 3 3 6 3 3 3
0 0 0 0 0 0 0 0 0 0 3 3 0 0 0 3 3 3 3 3 0 0 3 3 6 0 0 0 0 0 0 3 3 0 0 0 0 0 0 0 0 0 0 3 3 6 3 3 3
0 0 0 0 0 0 0 0 0 0 3 3 3 3 6 6 6 6 6 3 3 3 3 6 13 6 0 0 0 0 3 3 0 0 3 6 3 0 0 0 0 3 3 3 6 6 3 3 3
0 0 0 0 0 0 0 0 0 0 3 3 3 3 6 6 6 3 3 3 3 10 10 10 10 6 0 3 3 3 3 6 3 3 6 6 6 3 0 0 3 3 3 6 6 3 3 3 3
0 0 0 0 0 0 0 0 0 0 3 3 3 3 3 3 6 3 6 13 10 10 10 13 13 10 6 6 3 3 0 3 3 3 3 3 6 6 3 3 0 0 3 6 0 3 3 3 3
0 0 0 0 0 0 0 0 0 3 3 3 3 3 3 3 10 10 10 10 16 16 13 6 10 3 3 3 3 3 3 3 10 6 3 3 3 10 6 10 3 0 0 3 0 3 3 3 3
0 0 0 0 0 0 0 0 0 0 0 3 3 6 3 6 6 6 10 10 10 10 10 6 3 3 3 3 3 3 3 3 10 6 6 6 6 10 10 6 6 3 6 6 3 6 3 3 3
0 0 0 0 0 0 0 0 0 0 3 3 3 6 10 6 6 6 6 10 10 10 10 10 3 3 3 3 6 6 6 10 6 10 10 10 6 10 13 13 6 6 3 6 6 10 10 6 3
0 0 0 0 0 0 0 0 0 0 0 0 3 3 10 10 6 6 10 10 10 10 6 3 3 6 6 3 6 10 6 6 10 3 6 10 10 10 13 16 10 10 13 10 13 16 13 13 10
0 0 0 0 0 0 0 0 0 0 0 0 0 3 10 10 10 10 10 10 10 10 6 6 6 6 3 6 6 6 10 6 6 10 10 13 10 10 10 16 10 13 13 10 6 13 10 10 10
0 0 0 0 0 0 0 0 0 0 0 0 0 10 10 10 10 10 6 10 3 3 6 6 6 0 0 3 3 6 6 10 10 10 10 10 10 6 6 10 10 10 10 10 6 10 13 13 10
0 0 0 0 0 0 0 0 0 0 0 0 0 0 13 16 16 10 6 6 6 3 3 10 6 6 3 6 10 10 10 3 6 10 10 13 13 10 10 16 13 16 16 16 16 16 26 16 19
0 0 0 0 0 0 0 0 0 3 3 3 3 3 10 16 16 10 6 6 6 3 10 10 6 6 3 6 10 13 16 13 10 13 13 13 13 13 13 13 13 19 23 23 23 26 26 29 26
0 0 0 0 0 0 0 0 3 3 3 6 3 13 16 13 16 13 6 6 3 6 13 13 10 6 6 13 13 13 16 16 16 16 13 16 13 13 13 13 19 23 26 26 23 29 32 26 29
0 0 0 0 0 0 0 0 0 3 3 6 10 16 16 19 19 19 13 6 3 6 10 16 19 16 19 16 16 23 16 16 16 10 13 16 16 13 19 13 16 23 23 23 26 29 29 32 29
0 0 0 0 0 0 0 0 0 3 3 6 10 10 13 13 19 19 13 10 6 13 13 16 19 19 19 13 13 16 19 23 19 19 16 16 16 13 13 13 16 19 23 13 19 19 23 26 26
0 0 0 0 0 0 0 0 0 3 3 10 10 10 16 19 23 26 23 19 19 19 16 26 26 26 19 16 16 16 19 23 26 29 26 23 26 19 10 10 10 10 16 13 16 19 23 26 26

GEFSSGP_con_cape1000_288.txt.gz
Probability
29 23 32 26 16 0 0 0 0 3 3 3 0 0 0 0 0 0 3 3 6 6 16 26 39 45 48 48 48 52 52 58 55 58 55 58 61 48 42 55 52 45 55 45 48 52 48 52 55
32 23 29 16 3 0 0 0 0 0 0 0 0 0 0 0 0 0 3 3 6 10 16 26 42 48 45 48 52 58 52 55 61 55 61 55 58 65 58 48 48 48 42 45 42 52 52 52 48
32 26 16 10 0 0 0 0 0 3 3 0 0 0 0 0 0 0 6 6 10 13 13 29 45 39 42 48 48 48 48 48 58 55 61 55 42 48 45 45 61 45 39 32 45 39 52 61 55
35 32 16 0 0 0 0 0 3 3 0 0 0 0 0 0 0 3 6 6 10 10 10 23 35 45 42 45 48 42 45 45 45 52 52 52 52 45 48 52 55 45 35 32 39 48 45 52 45
32 19 3 0 0 0 0 0 0 0 0 0 0 0 0 3 3 3 0 3 10 10 6 13 29 42 39 48 48 42 39 42 48 55 58 55 48 45 52 52 52 48 39 39 45 52 52 58 55
19 6 0 0 0 0 0 0 0 0 0 0 0 0 0 3 10 3 0 3 6 6 10 13 23 42 45 42 42 42 42 39 45 55 55 55 55 48 42 42 45 42 39 42 45 48 52 55 55
6 3 0 0 0 0 0 0 0 0 0 0 0 0 0 0 0 0 3 3 6 6 13 16 16 16 35 39 35 45 42 42 42 45 52 58 55 48 52 45 45 42 35 39 35 45 52 55 55
10 3 0 0 0 0 0 0 0 0 0 0 0 0 0 0 3 3 6 10 10 10 10 10 16 23 26 29 32 39 39 42 45 48 55 45 45 45 45 35 48 42 39 32 32 29 45 45 52
6 0 0 0 0 0 0 0 0 0 0 0 0 0 3 3 3 3 6 6 10 3 6 10 13 23 23 16 13 32 48 42 48 48 39 48 45 29 29 32 42 45 29 32 39 32 39 42 42
3 0 0 0 0 0 0 0 0 0 0 0 0 3 6 6 6 3 6 6 3 3 10 16 23 26 29 10 26 39 32 48 61 58 52 58 52 39 23 35 42 39 23 32 35 29 23 32 32
3 0 0 0 0 0 0 0 0 0 0 3 6 13 13 16 10 6 10 6 3 10 3 16 23 39 35 39 29 35 45 52 52 55 65 65 45 32 32 35 42 39 19 23 26 19 26 26 26
3 3 3 0 0 0 0 0 0 0 0 3 3 10 13 13 16 6 10 13 10 13 3 10 23 32 39 32 32 35 35 45 45 52 55 52 48 42 35 45 35 32 23 26 19 26 26 29 16
3 3 0 0 0 0 0 0 3 0 3 3 6 13 13 10 13 10 10 13 10 13 10 19 32 29 42 52 52 26 39 42 52 52 42 45 42 42 39 55 35 32 32 29 35 32 29 32 26
0 0 0 0 0 0 0 0 0 0 3 6 6 10 10 10 6 10 13 13 13 16 23 19 23 39 61 58 55 52 35 55 45 42 42 45 42 45 42 42 45 35 32 32 35 39 35 19 19
0 0 0 0 0 0 0 0 0 0 3 6 10 10 13 13 6 10 16 23 13 26 32 32 29 35 52 52 48 45 39 29 35 39 58 52 48 45 39 42 42 39 42 35 39 29 29 26 16
0 0 0 0 0 0 0 0 3 6 3 10 10 10 13 13 10 10 16 26 29 29 42 35 19 29 48 61 65 42 39 26 42 45 45 55 55 52 52 52 42 48 39 35 35 35 26 29 29
0 0 0 0 0 0 0 3 3 6 3 3 6 6 10 10 16 29 23 35 32 32 45 45 48 42 48 58 58 58 55 48 39 45 48 61 58 52 45 55 48 45 39 42 32 32 29 35 29
0 0 0 0 0 0 0 0 3 6 0 6 3 10 10 13 26 29 32 32 35 39 45 61 61 58 58 58 61 55 45 42 42 52 58 58 52 55 48 45 58 39 35 48 48 48 52 48 35
0 0 0 0 0 0 0 3 3 3 0 0 10 10 13 13 19 29 32 39 39 48 52 61 61 68 65 58 52 55 42 45 45 39 55 52 55 58 55 35 52 55 35 48 45 48 48 48 32
0 0 0 0 0 0 0 3 3 6 3 3 6 10 10 19 29 32 29 35 39 45 52 58 65 58 65 61 68 71 55 42 39 35 52 48 48 52 35 58 52 48 58 55 48 48 45 35 39
0 0 0 0 0 0 0 3 10 10 13 6 6 10 10 13 29 32 32 35 35 35 45 42 58 61 61 68 55 61 65 52 42 42 45 42 39 39 52 48 48 55 42 52 55 52 45 45 39
0 0 0 0 0 0 0 0 3 10 10 13 13 6 13 13 23 32 35 35 42 35 39 55 65 71 71 65 52 52 65 52 55 58 48 52 48 45 45 45 48 48 42 58 42 45 48 45 39
0 0 0 0 0 0 0 0 0 3 3 10 10 10 10 19 23 29 32 32 35 32 39 55 68 74 74 71 71 71 58 58 52 52 58 65 65 58 48 55 55 55 48 52 55 55 52 45 48
0 0 0 0 0 0 0 0 0 6 6 6 6 13 13 16 26 32 32 29 32 26 42 45 68 74 74 71 71 71 65 65 65 61 61 58 65 65 58 58 61 58 52 58 61 61 58 61 61
0 0 0 0 0 0 0 0 6 3 3 6 13 16 19 19 26 35 35 39 39 32 39 48 61 74 74 68 68 68 68 68 65 58 61 58 48 58 65 65 68 68 65 65 65 68 65 65 61
0 0 0 0 0 0 0 0 6 3 3 3 13 26 19 26 23 32 29 39 32 35 45 45 65 71 71 68 68 68 71 65 61 65 61 61 55 48 58 61 58 61 65 58 68 61 55 58 55
0 0 0 0 0 0 0 0 6 3 3 3 10 26 29 26 29 35 35 32 29 32 45 52 55 68 71 68 68 68 65 65 65 65 61 55 65 55 55 52 52 55 61 58 61 61 55 52 52
0 0 0 0 0 0 0 0 3 6 10 13 16 29 39 45 42 42 45 42 42 42 48 55 58 68 68 65 65 65 61 61 65 65 65 68 61 61 58 52 48 52 52 52 52 48 52 55 55
0 0 0 0 0 0 0 0 3 6 19 13 10 23 39 48 45 52 58 55 48 42 52 55 61 58 65 61 58 58 55 58 61 61 61 58 61 55 52 48 48 45 48 48 48 45 42 48 52
0 0 0 0 0 0 0 6 6 10 13 19 13 16 29 35 42 45 58 55 55 48 48 55 55 58 58 61 61 61 55 52 52 42 52 55 52 52 52 48 52 48 45 52 48 45 45 42 42

GEFSSGP_con_cape1000_294.txt.gz
Probability
16 23 42 61 65 6 0 0 0 0 0 0 0 0 0 3 3 3 10 16 16 19 16 29 45 42 52 48 48 52 55 52 45 48 48 52 55 52 55 52 55 48 39 42 52 55 55 52 55
29 45 52 58 23 0 0 0 0 0 0 0 0 0 0 0 3 3 13 13 19 19 16 29 42 42 55 55 48 48 48 52 48 45 48 45 55 55 52 45 42 42 42 45 45 55 52 55 48
39 52 45 29 3 0 0 0 0 0 0 0 0 0 0 0 6 13 13 13 16 16 16 29 45 45 42 48 45 42 42 39 48 45 52 55 48 55 55 45 42 42 39 42 45 48 52 52 52
71 58 29 13 0 0 0 0 0 0 0 0 0 0 3 3 3 10 10 13 16 19 19 29 42 45 42 42 45 35 35 45 45 35 45 39 35 45 52 48 45 52 45 52 42 48 55 52 48
65 42 19 0 0 0 0 0 0 0 0 0 3 0 0 3 6 6 6 6 13 13 16 23 39 42 45 45 42 39 35 35 35 32 35 42 48 39 45 45 42 48 52 52 45 42 48 52 48
39 29 6 0 0 0 0 0 0 0 0 0 0 0 0 3 6 10 6 6 13 13 16 23 52 55 48 42 42 35 35 42 39 42 35 42 48 52 52 42 48 45 45 45 48 42 45 55 45
23 16 3 0 3 0 0 0 0 0 0 0 0 0 0 3 3 6 6 6 6 10 19 23 29 52 52 52 52 39 35 45 48 45 42 39 52 58 55 48 48 48 45 45 48 42 45 42 42
13 6 0 0 0 0 0 0 0 0 0 0 0 0 0 3 6 6 6 6 6 6 16 23 23 32 39 32 48 42 45 55 58 52 55 68 71 55 52 58 48 39 35 39 39 45 52 52 48
6 3 0 0 0 0 0 0 0 0 0 0 0 0 0 0 0 10 6 6 16 10 16 19 23 23 29 29 29 42 45 52 52 48 45 52 52 35 39 35 45 48 39 39 45 52 52 55 52
3 3 0 0 0 0 0 0 0 0 0 0 0 3 0 3 6 10 13 6 10 16 16 19 23 23 26 16 52 55 39 48 52 61 55 55 68 61 23 48 48 39 35 39 48 48 48 35 23
3 0 0 0 0 3 0 0 0 0 0 0 0 3 0 10 6 13 13 19 13 16 16 19 29 39 32 35 35 55 52 55 58 55 71 68 55 48 48 42 42 52 42 35 39 42 32 32 26
0 0 0 0 0 0 0 0 0 0 0 0 0 3 6 6 6 13 19 23 23 19 23 26 32 52 61 52 65 65 48 61 65 68 68 61 65 61 55 55 52 52 48 48 48 48 42 29 32
0 0 0 0 0 0 0 0 0 0 0 3 3 3 0 3 3 10 16 23 26 26 23 35 52 68 68 74 74 61 65 61 61 77 68 71 58 65 58 65 61 52 52 48 48 48 39 39 32
0 0 0 0 0 0 0 0 0 0 3 3 6 10 3 13 10 10 13 26 26 19 29 39 48 71 77 77 74 81 58 74 65 68 68 68 65 68 55 61 61 58 58 55 52 42 39 39 39
0 0 0 0 0 0 0 0 0 0 3 3 3 6 6 13 16 16 23 39 26 35 42 48 55 65 81 74 74 61 55 55 58 61 65 61 65 61 58 55 55 52 48 48 55 45 48 48 42
0 0 0 0 0 0 0 0 0 0 3 3 3 6 10 16 13 23 32 42 48 48 61 55 26 55 74 74 74 68 68 65 61 61 61 68 68 65 58 52 45 52 45 48 52 52 52 42 45
0 0 0 0 0 0 0 0 0 0 3 3 3 6 10 6 16 26 23 35 52 65 65 71 71 65 71 71 71 68 71 65 61 65 61 58 61 65 61 61 55 58 52 48 45 52 52 42 42
0 0 0 0 0 0 0 0 0 0 3 6 6 10 19 16 23 29 26 35 61 68 74 71 71 77 81 77 71 71 61 58 61 61 65 65 65 58 61 61 61 58 55 52 55 52 52 52 42
0 0 0 0 0 0 0 0 0 0 3 6 13 16 19 23 19 26 19 29 45 68 81 74 71 77 81 81 77 71 58 61 61 61 65 65 58 58 61 61 58 58 58 55 52 52 48 45 45
0 0 0 0 0 0 0 0 0 0 0 6 10 19 26 29 29 32 29 29 35 68 77 77 81 77 74 74 77 74 58 58 61 65 65 61 58 55 52 61 61 61 61 61 55 55 52 48 48
0 0 0 0 0 0 0 3 3 0 0 3 10 13 19 26 32 35 32 35 35 61 74 71 81 81 77 74 74 74 74 65 65 61 61 58 52 55 58 61 58 61 61 58 61 65 52 52 55
0 0 0 0 0 0 0 0 6 3 3 3 6 10 16 26 32 35 29 39 42 55 65 81 84 81 81 81 77 68 65 58 65 68 58 58 58 55 58 61 61 65 61 68 68 65 65 68 58
0 0 0 0 0 0 0 0 0 3 3 3 6 6 10 23 32 32 35 39 39 35 55 74 81 81 84 84 87 74 71 71 68 68 68 65 61 61 61 61 65 65 68 68 68 68 68 68 68
0 0 0 0 0 0 0 0 0 0 3 6 10 10 13 16 32 32 32 42 32 35 52 68 84 81 81 77 74 74 74 74 74 71 61 65 68 68 65 65 68 68 65 65 68 68 68 68 71
0 0 0 0 0 0 0 0 6 3 3 6 10 10 10 16 26 35 35 35 32 32 55 68 81 84 84 71 74 74 81 81 77 71 71 68 68 68 68 65 65 68 68 68 65 71 71 68 71
0 0 0 0 0 0 0 0 6 3 3 6 6 10 10 16 16 32 32 42 35 39 65 74 81 81 81 74 74 77 77 74 74 74 68 68 71 68 68 68 68 68 61 61 68 68 61 65 68
0 0 0 0 0 0 0 6 6 3 3 10 13 13 13 19 19 26 35 39 39 42 65 71 77 81 77 74 77 77 74 74 74 74 74 71 74 65 65 61 61 61 65 68 71 65 68 68 68
0 0 0 0 0 0 0 3 6 3 3 6 13 16 16 16 35 35 45 48 55 55 61 65 77 81 77 77 74 68 74 74 77 74 74 71 71 65 61 61 65 65 65 68 71 68 65 65 58
0 0 0 0 3 0 0 0 3 3 3 6 13 13 23 32 42 39 48 58 55 55 52 71 74 74 74 71 71 71 68 71 68 71 68 68 68 65 65 68 65 55 61 58 55 55 55 55 55
0 0 0 0 6 0 0 3 3 3 0 10 16 16 29 39 35 45 45 55 55 52 52 65 68 65 68 71 65 68 74 68 61 61 61 58 55 55 52 52 55 55 48 55 52 52 45 52 48

GEFSSGP_con_cape1000_300.txt.gz
Probability
26 13 13 26 16 0 0 0 0 0 0 0 0 0 3 3 0 0 0 3 6 10 19 48 65 65 58 61 55 61 58 61 61 68 68 65 61 65 58 61 61 58 61 55 65 65 61 65 58
0 6 16 6 10 0 0 0 0 0 0 0 0 0 3 3 3 3 0 3 10 10 13 32 61 65 58 55 55 52 45 45 52 58 65 61 61 58 55 55 52 52 52 55 65 58 61 71 61
0 10 10 10 0 0 0 0 0 0 0 0 0 0 3 3 6 6 3 3 6 0 10 32 58 74 61 61 52 52 48 55 48 52 58 55 52 61 61 55 55 55 52 58 61 52 58 58 55
10 23 16 6 0 0 0 0 0 0 0 0 0 0 6 10 10 10 3 3 3 3 16 39 65 68 65 58 61 52 55 52 42 32 35 52 61 58 68 61 65 58 48 52 55 55 55 58 52
19 23 10 3 0 0 0 0 0 0 0 0 0 0 3 10 10 3 3 3 3 3 10 39 74 71 68 61 58 52 52 52 48 39 35 42 55 58 61 58 58 52 48 58 61 55 52 55 52
23 13 13 0 0 0 0 0 0 0 0 0 0 0 6 10 10 3 6 3 3 6 6 29 68 71 74 68 65 61 55 52 45 42 52 55 55 55 58 58 61 61 58 58 55 48 45 42 45
16 6 6 0 0 0 0 0 0 0 0 0 0 0 3 0 3 6 6 3 6 10 6 16 29 42 71 68 65 61 61 61 58 61 65 55 52 52 55 55 58 65 58 58 48 45 45 48 58
19 3 3 0 0 0 0 0 0 0 0 0 0 0 0 0 3 6 3 3 3 3 0 0 10 16 23 42 61 68 65 68 65 68 68 65 58 55 55 52 65 61 65 55 52 48 58 55 58
13 3 3 0 0 0 0 0 0 0 0 0 0 0 0 0 0 3 3 3 3 3 0 0 3 3 10 10 32 42 58 58 55 48 55 29 13 13 29 52 58 55 52 52 52 52 58 45 42
10 6 3 0 0 0 0 0 0 0 0 0 0 3 3 3 3 3 3 3 6 6 3 6 3 3 3 13 13 13 16 16 16 6 13 6 3 3 13 45 58 52 45 42 52 52 45 39 19
3 6 3 0 0 0 0 0 0 0 0 0 0 3 3 3 0 0 3 3 6 6 10 10 10 3 3 3 3 6 3 10 3 3 0 3 0 3 6 6 29 29 32 19 29 29 23 26 19
3 3 3 0 0 0 0 0 0 0 0 0 0 3 3 3 0 0 3 6 6 6 6 10 16 10 3 0 0 0 0 3 3 0 0 3 3 0 0 3 3 6 13 10 13 16 16 10 13
3 0 0 0 0 0 0 0 0 0 0 0 0 0 3 6 10 3 6 3 6 6 6 6 6 3 3 0 0 3 0 0 3 3 3 3 0 0 6 10 6 3 10 10 6 10 13 10 10
0 0 0 0 0 0 0 0 0 0 0 0 0 0 6 6 10 10 6 6 6 6 3 3 3 3 3 3 3 0 3 3 10 10 10 6 0 3 10 6 10 6 3 6 3 13 6 6 6
0 0 0 0 0 0 0 0 0 0 0 3 0 3 6 6 6 10 3 6 6 6 3 3 6 6 3 3 6 3 6 6 6 10 10 3 3 3 3 6 6 13 10 13 10 13 6 6 6
0 0 0 0 0 0 0 0 0 0 0 0 0 10 6 6 3 6 6 6 3 6 6 13 16 6 6 3 10 10 6 6 10 10 6 6 13 3 3 6 3 13 10 13 13 13 10 10 6
0 0 0 0 0 0 0 0 0 0 0 0 10 13 13 3 10 16 16 6 3 6 6 13 16 10 10 10 6 10 10 16 19 16 16 16 23 13 10 13 13 13 6 10 16 13 13 6 10
0 0 0 0 0 0 0 0 3 0 0 0 6 10 10 6 6 13 6 6 3 6 10 10 6 13 19 16 13 16 19 19 16 23 19 16 23 16 10 10 10 16 13 13 10 13 16 13 13
0 0 0 0 0 0 0 0 3 0 0 0 3 3 6 13 16 16 13 10 6 13 13 16 16 13 10 19 19 16 16 19 19 23 23 16 16 16 19 23 19 16 16 16 13 13 16 13 16
0 0 0 0 0 0 0 0 3 3 3 0 0 3 10 10 13 16 16 23 10 13 13 19 16 19 19 26 23 19 23 16 16 19 19 26 19 19 19 19 19 19 16 13 16 19 16 23 16
0 0 0 0 0 0 0 0 0 3 3 3 3 6 6 6 10 16 16 23 16 16 19 26 19 19 23 29 26 26 19 23 29 23 26 26 19 23 16 16 19 23 23 23 19 19 23 23 23
0 0 0 0 0 0 0 0 0 0 3 3 3 0 3 10 10 13 16 19 23 26 23 23 26 23 19 19 29 23 26 29 26 26 29 29 23 26 29 26 19 23 26 19 16 19 19 26 23
0 0 0 0 0 0 0 0 0 0 3 6 10 3 6 6 10 13 16 19 23 32 35 26 26 32 26 19 23 26 26 23 23 26 29 29 32 39 32 29 26 26 19 23 23 19 26 23 23
0 0 0 0 0 0 0 0 0 0 3 10 10 13 10 13 16 13 13 13 16 23 32 29 26 26 26 29 29 32 29 29 29 26 29 29 32 32 32 23 23 32 29 23 26 29 29 29 32
0 0 0 0 0 0 0 0 0 3 6 6 10 13 19 16 13 13 16 13 16 23 35 32 23 26 29 29 29 29 32 32 29 26 23 23 26 26 26 32 29 29 26 26 19 23 23 29 29
0 0 0 0 0 0 0 0 6 6 6 10 13 16 23 13 13 16 10 16 16 23 32 35 32 39 39 29 26 23 29 26 23 26 26 23 23 26 26 29 26 26 26 29 29 23 23 23 26
0 0 0 0 0 0 0 0 6 6 10 10 16 19 23 29 29 23 16 16 23 29 26 32 32 32 29 29 29 26 23 26 26 26 23 26 19 23 23 29 29 26 26 23 19 26 23 19 26
0 0 0 0 0 0 0 0 3 3 10 16 16 23 23 26 29 32 29 32 35 35 32 42 32 39 42 35 35 35 26 29 29 29 19 26 16 19 16 19 29 29 29 29 32 32 29 29 26
0 0 0 0 0 0 0 0 0 6 6 16 16 19 26 29 35 32 32 35 35 32 39 39 39 42 35 42 35 26 32 23 26 23 23 23 23 26 26 23 23 23 23 23 26 26 32 29 29
0 0 0 0 0 0 0 0 0 0 6 16 16 23 23 26 29 29 29 35 32 32 32 32 39 42 42 32 35 35 39 29 29 29 26 26 23 23 26 26 26 19 26 26 26 26 26 26 29